"Pseudo-MPEC" for P11XZ36

Created 2024 Sep 7 5:22:12 UT using Find_Orb

Click here for an explanation of pseudo-MPECs

 
 Astrometry: 
     P11XZ36* C2024 09 04.46456023 19 29.661-21 30 11.83   ~94DM 21.86wXNEOCPF51
     P11XZ36  C2024 09 04.47575523 19 31.361-21 30 48.96   ~94DM 21.25wXNEOCPF51
     P11XZ36  C2024 09 04.49814123 19 34.728-21 32 03.02   ~94DM 21.57wXNEOCPF51
     P11XZ36  C2024 09 04.55032923 19 42.918-21 34 53.81   ~94KM 21.20GVNEOCPF51
     P11XZ36  C2024 09 04.55096923 19 43.018-21 34 56.02   ~94KM 21.19GVNEOCPF51
     P11XZ36  C2024 09 04.57020023 19 46.175-21 35 58.47   ~94KM 21.29GVNEOCPF51
     P11XZ36  C2024 09 04.57085023 19 46.294-21 36 00.14   ~94KM 22.02GVNEOCPF51
     P11XZ36 7C2024 09 05.03945123 21 32.062-22 04 16.79   ~95A7 21.2 GVNEOCPZ84
     P11XZ36 7C2024 09 05.04719223 21 33.417-22 04 45.81   ~95A7 21.0 GVNEOCPZ84
     P11XZ36 7C2024 09 05.05492323 21 34.783-22 05 13.53   ~95A7       VNEOCPZ84
     P11XZ36  C2024 09 05.44504523 23 07.762-22 29 38.23   ~95Ib 20.93GVNEOCPF51
     P11XZ36  C2024 09 05.44586823 23 07.934-22 29 41.64   ~95Ib 21.15GVNEOCPF51

Station data:
(F51) Pan-STARRS 1, Haleakala  (N20.707234 W156.255910)  US/Hawaii.
   Observers J. Bulger, T. Lowe, A. Schultz, M. Willman. Measurers K.
   Chambers, S. Chastel, T. de Boer, L. Denneau, J. Fairlamb, H. Flewelling,
   M. Huber, C.-C. Lin, E. Magnier, Y. Ramanjooloo, R. Wainscoat, R. Weryk.
   1.8-m Ritchey-Chrétien + CCD.
(Z84) Calar Alto-Schmidt  (N37.224046 W2.548210)  Spain.  Observer F. Ocaña.
   Measurers E. Schwab, D. Koschny, M. Micheli. 0.8-m f/3 Schmidt + CCD.

Orbital elements:  P11XZ36
   Perihelion 2024 Nov 1.92299 +/- 0.0455 TT = 22:09:06 (JD 2460616.42299)
Epoch 2024 Sep  5.0 TT = JDT 2460558.5   Earth MOID: 0.0159   Ma: 0.0150
M 327.78799455 +/- 0.12             (J2000 ecliptic)             AutoNEOCP
n   0.55611775 +/- 0.00179          Peri.    9.39754 +/- 0.6
a   1.46450729 +/- 0.00315          Node    47.60570 +/- 0.6
e   0.4278029 +/- 0.00164           Incl.    1.12052 +/- 0.006
P   1.772/647.333d         H 26.32  G  0.15   U  8.5
q 0.83798679 +/- 0.000666    Q 2.09102780 +/- 0.00688
From 12 observations 2024 Sept. 4-5 (23.6 hr); mean residual 0".17
Residuals in arcseconds: 
240904 F51  .08-  .09-    240904 F51  .06-  .08-    240905 Z84  .04+  .32-    
240904 F51  .20+  .06+    240904 F51  .06-  .27-    240905 Z84  .14-  .17+    
240904 F51  .12-  .12+    240904 F51  .09+  .16+    240905 F51  .15-  .07+    
240904 F51  .01-  .06+    240905 Z84  .33+  .40+    240905 F51  .12+  .09-    

Ephemerides (geocentric):
Date (UTC) HH   RA             Dec           delta  r     elong  mag " sig PA
---- --------  ------------   ------------  ------ ------ -----  --- --------
2024 09 07 05  23 31 45.085   -24 43 40.66  .05437 1.0590 160.1 21.1 1.52 139
2024 09 07 06  23 31 59.951   -24 47 27.28  .05413 1.0588 160.0 21.1 1.58 139
2024 09 07 07  23 32 14.965   -24 51 15.76  .05389 1.0585 160.0 21.1 1.63 138
2024 09 07 08  23 32 30.129   -24 55 06.15  .05364 1.0582 159.9 21.1 1.69 138
2024 09 07 09  23 32 45.446   -24 58 58.45  .05340 1.0580 159.8 21.1 1.76 138
2024 09 07 10  23 33 00.918   -25 02 52.69  .05315 1.0577 159.7 21.0 1.82 138
2024 09 07 11  23 33 16.547   -25 06 48.90  .05291 1.0574 159.6 21.0 1.89 138
2024 09 07 12  23 33 32.336   -25 10 47.10  .05267 1.0572 159.5 21.0 1.95 138
2024 09 07 13  23 33 48.287   -25 14 47.31  .05242 1.0569 159.4 21.0 2.02 138
2024 09 07 14  23 34 04.402   -25 18 49.56  .05218 1.0566 159.4 21.0 2.09 137
2024 09 07 15  23 34 20.684   -25 22 53.88  .05194 1.0564 159.3 21.0 2.16 137
2024 09 07 16  23 34 37.136   -25 27 00.28  .05169 1.0561 159.2 21.0 2.24 137
2024 09 07 17  23 34 53.760   -25 31 08.80  .05145 1.0558 159.1 21.0 2.32 137
2024 09 07 18  23 35 10.559   -25 35 19.46  .05121 1.0556 159.0 21.0 2.39 137
2024 09 07 19  23 35 27.536   -25 39 32.29  .05097 1.0553 158.9 21.0 2.47 137
2024 09 07 20  23 35 44.693   -25 43 47.31  .05072 1.0550 158.8 21.0 2.56 137
2024 09 07 21  23 36 02.034   -25 48 04.56  .05048 1.0548 158.7 21.0 2.64 137
2024 09 07 22  23 36 19.560   -25 52 24.05  .05024 1.0545 158.6 21.0 2.73 137
2024 09 07 23  23 36 37.276   -25 56 45.82  .05000 1.0542 158.5 20.9 2.82 137
2024 09 08 00  23 36 55.183   -26 01 09.91  .04976 1.0540 158.4 20.9 2.91 136
2024 09 08 01  23 37 13.286   -26 05 36.32  .04952 1.0537 158.3 20.9 3.00 136
2024 09 08 02  23 37 31.587   -26 10 05.11  .04927 1.0534 158.2 20.9 3.10 136
2024 09 08 03  23 37 50.090   -26 14 36.29  .04903 1.0532 158.2 20.9 3.20 136
2024 09 08 04  23 38 08.798   -26 19 09.90  .04879 1.0529 158.1 20.9 3.30 136
2024 09 08 05  23 38 27.714   -26 23 45.96  .04855 1.0526 158.0 20.9 3.41 136
2024 09 08 06  23 38 46.841   -26 28 24.52  .04831 1.0524 157.9 20.9 3.51 136
2024 09 08 07  23 39 06.184   -26 33 05.60  .04807 1.0521 157.8 20.9 3.62 136
2024 09 08 08  23 39 25.745   -26 37 49.23  .04783 1.0518 157.6 20.9 3.74 136
2024 09 08 09  23 39 45.528   -26 42 35.44  .04759 1.0516 157.5 20.9 3.85 136
2024 09 08 10  23 40 05.538   -26 47 24.28  .04735 1.0513 157.4 20.9 3.97 136
2024 09 08 11  23 40 25.778   -26 52 15.77  .04711 1.0510 157.3 20.8 4.09 136
2024 09 08 12  23 40 46.251   -26 57 09.95  .04687 1.0508 157.2 20.8 4.22 136
2024 09 08 13  23 41 06.962   -27 02 06.86  .04664 1.0505 157.1 20.8 4.34 136
2024 09 08 14  23 41 27.915   -27 07 06.52  .04640 1.0502 157.0 20.8 4.47 136
2024 09 08 15  23 41 49.113   -27 12 08.98  .04616 1.0500 156.9 20.8 4.61 136
2024 09 08 16  23 42 10.563   -27 17 14.27  .04592 1.0497 156.8 20.8 4.74 136
2024 09 08 17  23 42 32.266   -27 22 22.44  .04568 1.0494 156.7 20.8 4.89 136
2024 09 08 18  23 42 54.229   -27 27 33.50  .04544 1.0492 156.6 20.8 5.03 135
2024 09 08 19  23 43 16.455   -27 32 47.52  .04521 1.0489 156.5 20.8 5.18 135
2024 09 08 20  23 43 38.949   -27 38 04.52  .04497 1.0486 156.3 20.8 5.33 135
2024 09 08 21  23 44 01.717   -27 43 24.54  .04473 1.0484 156.2 20.8 5.48 135
2024 09 08 22  23 44 24.762   -27 48 47.62  .04450 1.0481 156.1 20.8 5.64 135
2024 09 08 23  23 44 48.090   -27 54 13.81  .04426 1.0479 156.0 20.7 5.81 135
2024 09 09 00  23 45 11.706   -27 59 43.15  .04402 1.0476 155.9 20.7 5.97 135
2024 09 09 01  23 45 35.615   -28 05 15.67  .04379 1.0473 155.7 20.7 6.15 135
2024 09 09 02  23 45 59.822   -28 10 51.43  .04355 1.0471 155.6 20.7 6.32 135
2024 09 09 03  23 46 24.334   -28 16 30.46  .04332 1.0468 155.5 20.7 6.50 135
2024 09 09 04  23 46 49.155   -28 22 12.80  .04308 1.0465 155.4 20.7 6.69 135